Location: Newark
(51.3318°N, 0.0053°E)
Time: 16:21:06
(UTC+00:00)

M-CUBED/EXP-1 PRIME - Pass Details

Date: 02 July 2022
Orbit: 422 x 631 km, 101.7° (Epoch: 17 August)

Event Time Altitude Azimuth Distance (km) Brightness Sun altitude
Exits shadow 23:54:29 - 109° (ESE) 1,703 ? -15.6°
Reaches altitude 10° 23:54:57 10° 104° (ESE) 1,548 ? -15.6°
Maximum altitude 23:57:24 20° 56° (NE) 1,107 ? -15.6°
Drops below altitude 10° 23:59:56 10° 8° (N) 1,614 ? -15.6°
Sets 00:02:23 0° 351° (N) 2,531 ? -15.6°
